This demonstration page uses our WeatherBlox Daily Observations layout. Learn more.

Left ArrowRight Arrow

Hourly Observations for January 18, 2018

Temp ( °F °C ) Dew Point ( °F °C ) Humidity (%) Winds ( mph kmh ) Pressure ( in mb ) Visibility ( mi km ) Precip ( " mm )
12:15 am 00:15 Clear 19 -7 10 -12 68 68 NNW 13 20 30.33 1027 10 16.0934 0 0
12:35 am 00:35 Clear 19 -7 10 -12 68 68 NNW 8 13 30.33 1027 10 16.0934 0 0
12:55 am 00:55 Clear 18 -8 10 -12 73 73 NW 9 15 30.33 1027 10 16.0934 0 0
1:15 am 01:15 Clear 19 -7 10 -12 68 68 NNW 9 15 30.33 1027 10 16.0934 0 0
1:35 am 01:35 Clear 19 -7 10 -12 68 68 NNW 10 17 30.3 1026 10 16.0934 0 0
1:55 am 01:55 Clear 19 -7 10 -12 68 68 NW 9 15 30.3 1026 10 16.0934 0 0
2:15 am 02:15 Clear 19 -7 10 -12 68 68 N 5 7 30.3 1026 10 16.0934 0 0
2:35 am 02:35 Clear 19 -7 10 -12 68 68 NNW 15 24 30.3 1026 10 16.0934 0 0
2:55 am 02:55 Clear 19 -7 10 -12 68 68 NNW 17 28 30.27 1025 10 16.0934 0 0
3:15 am 03:15 Clear 19 -7 10 -12 68 68 NNW 17 28 30.27 1025 10 16.0934 0 0
3:35 am 03:35 Clear 19 -7 10 -12 68 68 NNW 14 22 30.21 1023 10 16.0934 0 0
3:55 am 03:55 Clear 19 -7 10 -12 68 68 NNW 12 19 30.21 1023 10 16.0934 0 0
4:15 am 04:15 Clear 19 -7 10 -12 68 68 NNW 10 17 30.21 1023 10 16.0934 0 0
4:35 am 04:35 Clear 19 -7 10 -12 68 68 N 7 11 30.21 1023 10 16.0934 0 0
4:55 am 04:55 Clear 19 -7 10 -12 68 68 NW 14 22 30.21 1023 10 16.0934 0 0
5:15 am 05:15 Clear 19 -7 10 -12 68 68 NNW 14 22 30.21 1023 10 16.0934 0 0
5:35 am 05:35 Clear 21 -6 9 -13 58 58 NNW 14 22 30.21 1023 10 16.0934 0 0
5:55 am 05:55 Clear 21 -6 9 -13 58 58 NNW 13 20 30.21 1023 10 16.0934 0 0
6:15 am 06:15 Clear 21 -6 10 -12 63 63 NW 14 22 30.21 1023 10 16.0934 0 0
6:35 am 06:35 Clear 21 -6 9 -13 58 58 NW 10 17 30.21 1023 10 16.0934 0 0
6:55 am 06:55 Clear 21 -6 9 -13 58 58 NW 9 15 30.21 1023 10 16.0934 0 0
7:15 am 07:15 Clear 21 -6 10 -12 63 63 NW 8 13 30.24 1024 10 16.0934 0 0
7:35 am 07:35 Sunny 21 -6 10 -12 63 63 NW 10 17 30.24 1024 10 16.0934 0 0
7:55 am 07:55 Sunny 23 -5 10 -12 58 58 NW 13 20 30.24 1024 10 16.0934 0 0
8:15 am 08:15 Sunny 25 -4 10 -12 54 54 NW 17 28 30.21 1023 10 16.0934 0 0
8:35 am 08:35 Sunny 27 -3 10 -12 50 50 NW 23 37 30.21 1023 10 16.0934 0 0
8:55 am 08:55 Sunny 28 -2 10 -12 47 47 NW 21 33 30.21 1023 10 16.0934 0 0
9:15 am 09:15 Sunny 28 -2 9 -13 43 43 NW 15 24 30.21 1023 10 16.0934 0 0
9:35 am 09:35 Sunny 30 -1 9 -13 40 40 NW 22 35 30.21 1023 10 16.0934 0 0
9:55 am 09:55 Sunny 32 0 9 -13 37 37 NW 20 31 30.21 1023 10 16.0934 0 0
10:15 am 10:15 Sunny 32 0 10 -12 40 40 NW 16 26 30.21 1023 10 16.0934 0 0
10:30 am 10:30 Sunny 32 0 10 -12 40 40 NW 15 24 30.21 1023 10 16.0934 0 0
10:55 am 10:55 Sunny 34 1 10 -12 38 38 WNW 21 33 30.21 1023 10 16.0934 0 0
11:15 am 11:15 Sunny 36 2 10 -12 35 35 WNW 5 7 30.18 1022 10 16.0934 0 0
11:35 am 11:35 Sunny 37 3 10 -12 33 33 WNW 22 35 30.18 1022 10 16.0934 0 0
11:55 am 11:55 Sunny 37 3 10 -12 33 33 WNW 22 35 30.15 1021 10 16.0934 0 0
12:15 pm 12:15 Sunny 41 5 10 -12 28 28 WNW 18 30 30.15 1021 10 16.0934 0 0
12:35 pm 12:35 Sunny 41 5 12 -11 31 31 NW 16 26 30.12 1020 10 16.0934 0 0
12:55 pm 12:55 Sunny 43 6 10 -12 26 26 NW 18 30 30.12 1020 10 16.0934 0 0
1:15 pm 13:15 Sunny 43 6 12 -11 29 29 WNW 18 30 30.12 1020 10 16.0934 0 0
1:35 pm 13:35 Sunny 45 7 12 -11 27 27 NW 16 26 30.09 1019 10 16.0934 0 0
1:55 pm 13:55 Sunny 45 7 10 -12 25 25 NW 15 24 30.09 1019 10 16.0934 0 0
2:15 pm 14:15 Sunny 45 7 10 -12 25 25 WNW 12 19 30.09 1019 10 16.0934 0 0
2:35 pm 14:35 Sunny 45 7 10 -12 25 25 NW 14 22 30.06 1018 10 16.0934 0 0
2:55 pm 14:55 Sunny 45 7 10 -12 25 25 WNW 10 17 30.06 1018 10 16.0934 0 0
3:15 pm 15:15 Sunny 45 7 10 -12 25 25 NNW 14 22 30.06 1018 10 16.0934 0 0
3:35 pm 15:35 Sunny 45 7 10 -12 25 25 WNW 9 15 30.06 1018 10 16.0934 0 0
3:55 pm 15:55 Sunny 45 7 10 -12 25 25 WNW 13 20 30.06 1018 10 16.0934 0 0
4:15 pm 16:15 Sunny 45 7 10 -12 25 25 NW 14 22 30.06 1018 10 16.0934 0 0
4:35 pm 16:35 Sunny 45 7 9 -13 23 23 NW 15 24 30.06 1018 10 16.0934 0 0
4:55 pm 16:55 Sunny 43 6 9 -13 24 24 NW 12 19 30.06 1018 10 16.0934 0 0
5:15 pm 17:15 Sunny 43 6 9 -13 24 24 NNW 10 17 30.09 1019 10 16.0934 0 0
5:35 pm 17:35 Clear 43 6 9 -13 24 24 N 6 9 30.09 1019 10 16.0934 0 0
5:55 pm 17:55 Clear 41 5 7 -14 24 24 N 5 7 30.09 1019 10 16.0934 0 0
6:15 pm 18:15 Clear 41 5 7 -14 24 24 N 3 6 30.12 1020 10 16.0934 0 0
6:35 pm 18:35 Clear 41 5 7 -14 24 24 NNW 6 9 30.12 1020 10 16.0934 0 0
6:55 pm 18:55 Clear 41 5 9 -13 26 26 NW 14 22 30.12 1020 10 16.0934 0 0
7:15 pm 19:15 Clear 39 4 9 -13 28 28 NW 14 22 30.12 1020 10 16.0934 0 0
7:35 pm 19:35 Clear 39 4 9 -13 28 28 NNW 10 17 30.12 1020 10 16.0934 0 0
7:55 pm 19:55 Clear 39 4 9 -13 28 28 NW 10 17 30.12 1020 10 16.0934 0 0
8:15 pm 20:15 Clear 39 4 9 -13 28 28 NW 8 13 30.12 1020 10 16.0934 0 0
8:35 pm 20:35 Clear 39 4 9 -13 28 28 NNW 8 13 30.12 1020 10 16.0934 0 0
8:55 pm 20:55 Clear 39 4 9 -13 28 28 Calm 30.15 1021 10 16.0934 0 0
9:15 pm 21:15 Clear 39 4 10 -12 30 30 N 9 15 30.15 1021 10 16.0934 0 0
9:35 pm 21:35 Clear 39 4 10 -12 30 30 N 5 7 30.15 1021 10 16.0934 0 0
9:55 pm 21:55 Clear 39 4 10 -12 30 30 N 6 9 30.15 1021 10 16.0934 0 0
10:15 pm 22:15 Clear 37 3 10 -12 33 33 NNW 10 17 30.15 1021 10 16.0934 0 0
10:35 pm 22:35 Clear 37 3 10 -12 33 33 NNW 7 11 30.15 1021 10 16.0934 0 0
10:55 pm 22:55 Clear 34 1 12 -11 41 41 WNW 6 9 30.15 1021 10 16.0934 0 0
11:15 pm 23:15 Clear 36 2 12 -11 38 38 WNW 5 7 30.15 1021 10 16.0934 0 0
11:35 pm 23:35 Clear 34 1 12 -11 41 41 NW 8 13 30.15 1021 10 16.0934 0 0
11:55 pm 23:55 Clear 32 0 12 -11 44 44 WNW 7 11 30.15 1021 10 16.0934 0 0

Powered by AerisWeather